• In Deutschland
  • Länderverzeichnis
  • Für 7 Tage
  • Wassertemperatur
  • Satellitenkarten
  • Wetterkarte
  • Widgets
  • user-avatar
    Anmelden

    Stündliche Wetter Benguela

    Heute, 22 September, Freitag

    Zeit Temperatur Niederschläge Wind Luftdruck Luftfeuchtigkeit
    00:00 +26°C° 0 mm 2 m/S 760 mmHg 76%
    01:00 +26°C° 0 mm 2 m/S 760 mmHg 77%
    02:00 +26°C° 0 mm 2 m/S 759 mmHg 78%
    03:00 +26°C° 0 mm 2 m/S 759 mmHg 79%
    04:00 +25°C° 0 mm 2 m/S 759 mmHg 80%
    05:00 +26°C° 0 mm 2 m/S 759 mmHg 77%
    06:00 +27°C° 0 mm 2 m/S 759 mmHg 74%
    07:00 +28°C° 0 mm 2 m/S 759 mmHg 70%
    08:00 +30°C° 0 mm 2 m/S 759 mmHg 61%
    09:00 +34°C° 0 mm 2 m/S 759 mmHg 52%
    10:00 +36°C° 0 mm 3 m/S 759 mmHg 43%
    11:00 +37°C° 0 mm 3 m/S 758 mmHg 43%
    12:00 +37°C° 0 mm 4 m/S 758 mmHg 43%
    13:00 +37°C° 0 mm 5 m/S 757 mmHg 43%
    14:00 +36°C° 0 mm 5 m/S 757 mmHg 47%
    15:00 +34°C° 0 mm 5 m/S 757 mmHg 52%
    16:00 +33°C° 0 mm 5 m/S 757 mmHg 56%
    17:00 +30°C° 0 mm 4 m/S 757 mmHg 63%
    18:00 +28°C° 0 mm 3 m/S 758 mmHg 71%
    19:00 +26°C° 0 mm 3 m/S 758 mmHg 78%
    20:00 +26°C° 0 mm 2 m/S 759 mmHg 79%
    21:00 +26°C° 0 mm 2 m/S 759 mmHg 81%
    22:00 +26°C° 0 mm 2 m/S 760 mmHg 82%
    23:00 +25°C° 0 mm 2 m/S 759 mmHg 84%

    Morgen, 23 September, Samstag

    Zeit Temperatur Niederschläge Wind Luftdruck Luftfeuchtigkeit
    00:00 +25°C° 0 mm 2 m/S 759 mmHg 86%
    01:00 +25°C° 0 mm 2 m/S 759 mmHg 88%
    02:00 +24°C° 0 mm 2 m/S 759 mmHg 89%
    03:00 +24°C° 0 mm 1 m/S 759 mmHg 90%
    04:00 +24°C° 0 mm 1 m/S 759 mmHg 91%
    05:00 +24°C° 0 mm 1 m/S 759 mmHg 90%
    06:00 +24°C° 0 mm 1 m/S 759 mmHg 89%
    07:00 +25°C° 0 mm 1 m/S 760 mmHg 87%
    08:00 +27°C° 0 mm 1 m/S 760 mmHg 77%
    09:00 +29°C° 0 mm 2 m/S 760 mmHg 67%
    10:00 +31°C° 0 mm 2 m/S 759 mmHg 57%
    11:00 +32°C° 0 mm 2 m/S 759 mmHg 53%
    12:00 +34°C° 0 mm 3 m/S 758 mmHg 50%
    13:00 +35°C° 0 mm 4 m/S 757 mmHg 47%
    14:00 +34°C° 0 mm 4 m/S 757 mmHg 51%
    15:00 +32°C° 0 mm 4 m/S 757 mmHg 55%
    16:00 +30°C° 0 mm 4 m/S 757 mmHg 59%
    17:00 +29°C° 0 mm 3 m/S 758 mmHg 66%
    18:00 +27°C° 0 mm 2 m/S 758 mmHg 73%
    19:00 +26°C° 0 mm 1 m/S 759 mmHg 80%
    20:00 +26°C° 0 mm 1 m/S 760 mmHg 80%
    21:00 +26°C° 0 mm 1 m/S 760 mmHg 80%
    22:00 +24°C° 0 mm 0 m/S 761 mmHg 81%
    23:00 +26°C° 0 mm 1 m/S 761 mmHg 82%

    übermorgen, 24 September, Sonntag

    Zeit Temperatur Niederschläge Wind Luftdruck Luftfeuchtigkeit
    00:00 +25°C° 0 mm 1 m/S 760 mmHg 83%
    01:00 +25°C° 0 mm 1 m/S 760 mmHg 84%
    02:00 +25°C° 0 mm 1 m/S 760 mmHg 86%
    03:00 +24°C° 0 mm 1 m/S 760 mmHg 88%
    04:00 +24°C° 0 mm 1 m/S 759 mmHg 89%
    05:00 +25°C° 0 mm 1 m/S 760 mmHg 88%
    06:00 +25°C° 0 mm 1 m/S 760 mmHg 86%
    07:00 +25°C° 0 mm 1 m/S 760 mmHg 84%
    08:00 +27°C° 0 mm 2 m/S 760 mmHg 73%
    09:00 +30°C° 0 mm 3 m/S 760 mmHg 63%
    10:00 +33°C° 0 mm 3 m/S 760 mmHg 52%
    11:00 +34°C° 0 mm 4 m/S 760 mmHg 50%
    12:00 +34°C° 0 mm 4 m/S 759 mmHg 48%
    13:00 +35°C° 0 mm 4 m/S 758 mmHg 46%
    14:00 +34°C° 0 mm 4 m/S 758 mmHg 50%
    15:00 +33°C° 0 mm 4 m/S 757 mmHg 53%
    16:00 +32°C° 0 mm 4 m/S 757 mmHg 57%
    17:00 +30°C° 0 mm 3 m/S 758 mmHg 64%
    18:00 +28°C° 0 mm 3 m/S 759 mmHg 71%
    19:00 +26°C° 0 mm 2 m/S 759 mmHg 79%
    20:00 +26°C° 0 mm 2 m/S 760 mmHg 79%
    21:00 +26°C° 0 mm 2 m/S 760 mmHg 80%
    22:00 +26°C° 0 mm 1 m/S 761 mmHg 81%
    23:00 +26°C° 0 mm 1 m/S 760 mmHg 81%

    25 September, Montag

    Zeit Temperatur Niederschläge Wind Luftdruck Luftfeuchtigkeit
    00:00 +25°C° 0 mm 1 m/S 760 mmHg 82%
    01:00 +25°C° 0 mm 1 m/S 760 mmHg 82%
    02:00 +25°C° 0 mm 1 m/S 760 mmHg 84%
    03:00 +24°C° 0 mm 1 m/S 759 mmHg 86%
    04:00 +24°C° 0 mm 1 m/S 759 mmHg 88%
    05:00 +24°C° 0 mm 1 m/S 760 mmHg 86%
    06:00 +23°C° 0 mm 0 m/S 760 mmHg 85%
    07:00 +23°C° 0 mm 0 m/S 761 mmHg 83%
    08:00 +27°C° 0 mm 1 m/S 760 mmHg 72%
    09:00 +30°C° 0 mm 2 m/S 760 mmHg 61%
    10:00 +32°C° 0 mm 2 m/S 760 mmHg 50%
    11:00 +34°C° 0 mm 3 m/S 759 mmHg 48%
    12:00 +34°C° 0 mm 3 m/S 758 mmHg 46%
    13:00 +35°C° 0 mm 4 m/S 757 mmHg 44%
    14:00 +34°C° 0 mm 4 m/S 757 mmHg 47%
    15:00 +33°C° 0 mm 4 m/S 757 mmHg 51%
    16:00 +32°C° 0 mm 4 m/S 757 mmHg 54%
    17:00 +30°C° 0 mm 4 m/S 757 mmHg 61%
    18:00 +28°C° 0 mm 3 m/S 758 mmHg 68%
    19:00 +27°C° 0 mm 3 m/S 759 mmHg 75%
    20:00 +26°C° 0 mm 3 m/S 759 mmHg 77%
    21:00 +26°C° 0 mm 3 m/S 760 mmHg 79%
    22:00 +25°C° 0 mm 2 m/S 760 mmHg 81%
    23:00 +25°C° 0 mm 2 m/S 759 mmHg 83%

    26 September, Dienstag

    Zeit Temperatur Niederschläge Wind Luftdruck Luftfeuchtigkeit
    00:00 +25°C° 0 mm 2 m/S 759 mmHg 85%
    01:00 +24°C° 0 mm 2 m/S 759 mmHg 86%
    02:00 +24°C° 0 mm 1 m/S 759 mmHg 88%
    03:00 +24°C° 0 mm 1 m/S 759 mmHg 90%
    04:00 +23°C° 0 mm 1 m/S 759 mmHg 91%
    05:00 +24°C° 0 mm 1 m/S 759 mmHg 89%
    06:00 +24°C° 0 mm 1 m/S 759 mmHg 87%
    07:00 +25°C° 0 mm 1 m/S 760 mmHg 84%
    08:00 +27°C° 0 mm 1 m/S 760 mmHg 72%
    09:00 +30°C° 0 mm 2 m/S 759 mmHg 60%
    10:00 +32°C° 0 mm 2 m/S 759 mmHg 48%
    11:00 +34°C° 0 mm 3 m/S 758 mmHg 46%
    12:00 +35°C° 0 mm 3 m/S 757 mmHg 44%
    13:00 +35°C° 0 mm 4 m/S 756 mmHg 42%
    14:00 +34°C° 0 mm 4 m/S 756 mmHg 47%
    15:00 +33°C° 0 mm 4 m/S 756 mmHg 51%
    16:00 +32°C° 0 mm 4 m/S 756 mmHg 55%
    17:00 +29°C° 0 mm 4 m/S 756 mmHg 63%
    18:00 +27°C° 0 mm 3 m/S 757 mmHg 72%
    19:00 +26°C° 0 mm 3 m/S 758 mmHg 80%
    20:00 +26°C° 0 mm 2 m/S 759 mmHg 80%
    21:00 +25°C° 0 mm 2 m/S 759 mmHg 80%
    22:00 +25°C° 0 mm 2 m/S 760 mmHg 80%
    23:00 +25°C° 0 mm 1 m/S 759 mmHg 81%

    27 September, Mittwoch

    Zeit Temperatur Niederschläge Wind Luftdruck Luftfeuchtigkeit
    00:00 +25°C° 0 mm 1 m/S 759 mmHg 83%
    01:00 +24°C° 0 mm 1 m/S 759 mmHg 84%
    02:00 +24°C° 0 mm 1 m/S 759 mmHg 86%
    03:00 +24°C° 0 mm 1 m/S 758 mmHg 87%
    04:00 +24°C° 0 mm 1 m/S 758 mmHg 89%
    05:00 +24°C° 0 mm 1 m/S 759 mmHg 86%
    06:00 +25°C° 0 mm 1 m/S 759 mmHg 83%
    07:00 +25°C° 0 mm 1 m/S 760 mmHg 80%
    08:00 +27°C° 0 mm 1 m/S 759 mmHg 69%
    09:00 +30°C° 0 mm 2 m/S 759 mmHg 57%
    10:00 +32°C° 0 mm 2 m/S 759 mmHg 45%
    11:00 +34°C° 0 mm 3 m/S 758 mmHg 44%
    12:00 +35°C° 0 mm 4 m/S 758 mmHg 42%
    13:00 +35°C° 0 mm 4 m/S 757 mmHg 41%
    14:00 +34°C° 0 mm 4 m/S 757 mmHg 45%
    15:00 +33°C° 0 mm 4 m/S 756 mmHg 49%
    16:00 +32°C° 0 mm 4 m/S 756 mmHg 53%
    17:00 +30°C° 0 mm 4 m/S 757 mmHg 61%
    18:00 +28°C° 0 mm 3 m/S 758 mmHg 69%
    19:00 +26°C° 0 mm 3 m/S 759 mmHg 77%
    20:00 +26°C° 0 mm 2 m/S 759 mmHg 78%
    21:00 +26°C° 0 mm 2 m/S 759 mmHg 79%
    22:00 +25°C° 0 mm 2 m/S 760 mmHg 81%
    23:00 +25°C° 0 mm 2 m/S 760 mmHg 82%
    Mehr zeigen